Regional Weather Roundup
Issued by NWS Jackson, KY

Home | Current Version | Previous Version | Text Only | Print | Product List | Glossary Off
Versions: 1 2 3 4 5 6 7 8 9 10 11 12 13 14 15 16 17 18 19 20 21 22 23 24 25 26 27 28 29 30 31 32 33 34 35 36 37 38 39 40 41 42 43 44 45 46 47 48 49 50

690
ASUS43 KJKL 191210
RWRJKL

EAST KENTUCKY HOURLY WEATHER ROUNDUP
NATIONAL WEATHER SERVICE JACKSON KY
800 AM EDT TUE SEP 19 2017

NOTE: "FAIR" INDICATES FEW OR NO CLOUDS BELOW 12,000 FEET WITH
NO SIGNIFICANT WEATHER AND/OR OBSTRUCTIONS TO VISIBILITY.

* THESE REPORTS ARE NOT UNDER NWS QUALITY CONTROL AND MAY NOT
  REPORT WEATHER SUCH AS PRECIPITATION AND FOG.

KYZ079-080-083-085-087-088-110-112-115-119-120-191300
...EASTERN KENTUCKY...

CITY           SKY/WX    TMP DP  RH WIND       PRES   REMARKS
JACKSON        CLOUDY    64  60  87 CALM      30.03R
6HR MIN TEMP:  63; 6HR MAX TEMP:  67;

LONDON         CLOUDY    63  62  97 CALM      30.03R FOG
6HR MIN TEMP:  63; 6HR MAX TEMP:  67;

SOMERSET*        N/A     61  61 100 CALM      30.02S FOG
MONTICELLO*    CLEAR     60  60 100 W7        30.03S FOG
6HR MIN TEMP:  59; 6HR MAX TEMP:  64;

WILLIAMSBURG*  CLOUDY    63  63 100 SE3       30.03S
MIDDLESBORO*   FOG       61  61 100 CALM      30.07R VSB 1/2
6HR MIN TEMP:  61; 6HR MAX TEMP:  63;

HARLAN APT*    CLOUDY    59  59 100 CALM      30.07R VSB 3/4
PIKE CO APT*   FOG       60  60 100 SE3       30.04S VSB<1/4
BIG SANDY APT* CLOUDY    63  63 100 CALM      30.04R
6HR MIN TEMP:  60; 6HR MAX TEMP:  64;

MOREHEAD APT*  MOSUNNY   66  63  88 CALM      30.02S
$$

KYZ035-036-041-042-044-050-067-078-099-191300
...CENTRAL KENTUCKY...

CITY           SKY/WX    TMP DP  RH WIND       PRES   REMARKS
MT STERLING*   CLOUDY    68  63  83 SE3       30.02R
FLEMING/MASON* CLOUDY    64  64  97 CALM      30.02R
DANVILLE*      PTCLDY    64  64 100 SW3       30.01S
LEXINGTON      MOCLDY    69  63  81 S6        30.00R
6HR MIN TEMP:  69; 6HR MAX TEMP:  71; 6HR PCP: TRACE;

FRANKFORT      HVY RAIN  70  66  87 S7        29.98R FOG
6HR MIN TEMP:  70; 6HR MAX TEMP:  74; 6HR PCP:  0.08;

LOUISVILLE     MOCLDY    73  68  84 CALM      29.96R
6HR MIN TEMP:  72; 6HR MAX TEMP:  74; 6HR PCP:  0.01;

LEBANON*         N/A     70  64  83 S9        29.99R
GLASGOW*       CLOUDY   N/A N/A N/A CALM      29.98S HAZE
BOWLING GREEN  MOCLDY    69  68  96 CALM      29.97S
6HR MIN TEMP:  65; 6HR MAX TEMP:  69;

$$

KYZ091>093-OHZ055-061-077-WVZ005-015-034-035-042-191300
...SOUTHERN OHIO/WEST VIRGINIA...

CITY           SKY/WX    TMP DP  RH WIND       PRES   REMARKS
COVINGTON      CLOUDY    70  67  90 S7        29.98R
COLUMBUS       CLOUDY    70  66  87 CALM      29.99S
DAYTON         CLOUDY    67  65  93 SE7       29.98S
WILMINGTON     CLOUDY    67  64  90 SE3       29.99R
HUNTINGTON     CLOUDY    63  62  97 CALM      30.01S
CHARLESTON     FOG       62  61  96 CALM      30.02S VSB 1/4
PINEVILLE*     FOG       60  59  97 MISG      30.12R VSB<1/4
BECKLEY        CLEAR     59  58  96 CALM      30.09S
BLUEFIELD      FOG       58  57  97 CALM      30.11R VSB 1/2
LOGAN CO APT*  FOG       61  61 100 CALM      30.06R VSB<1/4
$$

VAZ002-007-008-TNZ017-027-036-066-071-191300
...SOUTHWEST VIRGINIA/EAST TENNESSEE...

CITY           SKY/WX    TMP DP  RH WIND       PRES   REMARKS
WISE*          CLEAR     59  59 100 S3        30.11R
JONESVILLE*      N/A     55  55 100 CALM      30.09R FOG
ABINGDON*      CLEAR     60  60  99 E3        30.08S
BRISTOL        CLEAR     57  57 100 CALM      30.08R
MORRISTOWN*    SUNNY     63  61  94 CALM      30.05R
SEVIERVILLE*   SUNNY     57  57 100 CALM      30.03R
KNOXVILLE      CLEAR     63  60  90 CALM      30.03R
LAFOLLETTE*    FOG       61  61 100 CALM      30.08R VSB 0
OAK RIDGE      FOG       64  63  96 CALM      30.05R VSB 1/4
CROSSVILLE     CLEAR     60  59  96 CALM      30.06S
NASHVILLE      PTCLDY    68  65  90 SE3       29.99R
$$

...KEY TO REMARKS...
VSB - VISIBILITY IN MILES
WCI - WIND CHILL INDEX
HX  - HEAT INDEX

$$




USA.gov is the U.S. government's official web portal to all federal, state and local government web resources and services.